GFSMA_850_dewp_189.txt.gz
Dewpoint
-11 -12 -13 -15 -14 -15 -15 -15 -15 -16 -16 -17 -17 -17 -17 -16 -15 -12 -10 -7 -6 -6 -6 -6 -6 1 3 1 -4 -3 0 2 2 3 3 5 5 4 1 -6 -8 -3 5
-10 -12 -13 -14 -14 -14 -15 -15 -16 -16 -16 -16 -16 -16 -16 -14 -11 -9 -8 -6 -5 -5 -5 -7 -9 -10 -7 -3 -2 2 3 3 2 2 3 3 5 5 5 5 5 -0 -2
-11 -12 -13 -14 -14 -14 -15 -15 -15 -15 -16 -16 -16 -15 -14 -11 -8 -8 -7 -5 -5 -8 -11 -15 -18 -17 -12 -9 -6 2 2 2 3 2 3 2 2 3 3 4 6 6 5
-11 -12 -14 -14 -13 -14 -15 -14 -14 -15 -15 -16 -16 -15 -14 -9 -8 -7 -8 -11 -13 -15 -16 -16 -13 -11 -10 -8 -3 1 0 1 1 2 2 2 3 3 2 2 5 5 6
-12 -13 -13 -13 -13 -14 -14 -14 -14 -15 -16 -16 -16 -15 -10 -8 -8 -8 -8 -9 -13 -15 -13 -11 -9 -9 -9 -8 -3 -1 -1 -1 1 1 1 1 2 2 2 2 2 4 5
-12 -13 -13 -13 -13 -13 -13 -14 -15 -16 -18 -18 -16 -12 -10 -9 -7 -7 -11 -16 -17 -15 -12 -9 -10 -11 -13 -14 -9 -5 -4 -0 0 -0 -0 0 0 0 -0 -0 -0 3 4
-12 -13 -12 -12 -13 -13 -14 -14 -16 -19 -19 -18 -16 -11 -9 -8 -7 -9 -12 -15 -14 -15 -12 -12 -12 -12 -16 -18 -12 -9 -6 -2 -1 -1 -1 -2 -1 -1 -1 -2 -1 2 2
-12 -12 -12 -12 -13 -13 -13 -16 -19 -19 -21 -20 -16 -13 -6 -7 -6 -9 -14 -17 -19 -16 -13 -14 -14 -18 -21 -15 -10 -10 -6 -4 -2 -2 -2 -2 -2 -2 -2 -2 -1 -1 1
-12 -12 -11 -12 -13 -13 -15 -18 -19 -21 -23 -23 -25 -21 -13 -10 -7 -14 -16 -18 -18 -16 -15 -15 -18 -19 -25 -20 -13 -8 -8 -5 -4 -3 -2 -2 -2 -2 -2 -1 -1 -1 -1
-12 -11 -11 -12 -13 -13 -17 -18 -19 -22 -23 -26 -26 -26 -26 -23 -11 -11 -16 -18 -19 -16 -15 -16 -19 -22 -31 -19 -13 -8 -8 -6 -5 -4 -4 -3 -3 -3 -2 -2 -1 -1 -2
-12 -10 -10 -11 -12 -15 -17 -17 -20 -21 -24 -25 -26 -26 -26 -26 -25 -17 -11 -9 -19 -17 -17 -14 -20 -27 -33 -20 -16 -14 -9 -6 -6 -5 -5 -5 -5 -4 -4 -4 -3 -2 -2
-11 -10 -10 -12 -13 -16 -18 -19 -20 -23 -24 -25 -26 -27 -27 -26 -24 -22 -14 -15 -11 -13 -17 -18 -21 -33 -34 -24 -16 -14 -14 -14 -8 -6 -6 -5 -6 -6 -6 -5 -4 -4 -4
-10 -10 -10 -12 -14 -16 -18 -20 -21 -23 -25 -26 -26 -27 -27 -26 -25 -25 -25 -22 -11 -14 -15 -18 -23 -33 -34 -30 -20 -13 -13 -13 -10 -10 -10 -10 -9 -8 -8 -8 -7 -6 -5
-10 -9 -11 -13 -16 -17 -19 -20 -22 -24 -25 -26 -27 -27 -26 -25 -25 -26 -26 -24 -14 -11 -14 -18 -27 -32 -33 -32 -27 -15 -16 -17 -17 -14 -15 -20 -20 -15 -13 -10 -9 -8 -7
-10 -10 -13 -13 -16 -18 -19 -21 -23 -24 -25 -26 -27 -27 -26 -25 -26 -26 -27 -27 -24 -15 -12 -18 -28 -31 -32 -32 -32 -24 -24 -28 -26 -16 -19 -30 -30 -27 -22 -17 -11 -10 -9
-10 -11 -12 -13 -17 -19 -20 -21 -23 -24 -26 -27 -27 -26 -26 -26 -26 -26 -26 -26 -26 -26 -13 -27 -30 -30 -31 -31 -31 -32 -31 -29 -25 -21 -30 -35 -34 -33 -31 -23 -16 -12 -11
-9 -10 -11 -13 -17 -19 -20 -22 -23 -25 -26 -27 -27 -26 -26 -25 -25 -25 -25 -25 -25 -27 -19 -28 -29 -29 -30 -30 -30 -31 -30 -27 -23 -26 -30 -34 -35 -34 -32 -26 -21 -17 -14
-9 -9 -11 -13 -17 -19 -21 -22 -24 -26 -27 -27 -27 -27 -26 -25 -25 -25 -25 -25 -25 -27 -28 -26 -27 -28 -28 -28 -28 -29 -29 -28 -26 -27 -31 -33 -34 -33 -31 -26 -25 -23 -21
-8 -7 -10 -12 -17 -18 -21 -23 -24 -26 -27 -27 -28 -27 -26 -25 -25 -24 -24 -25 -25 -26 -26 -25 -25 -26 -27 -27 -27 -29 -29 -29 -28 -28 -31 -32 -33 -31 -27 -24 -25 -24 -23
-6 -8 -9 -11 -16 -19 -21 -24 -26 -27 -27 -28 -28 -27 -26 -25 -25 -24 -24 -25 -25 -25 -24 -24 -25 -26 -27 -27 -27 -29 -28 -32 -30 -30 -33 -33 -34 -33 -27 -26 -19 -16 -16
-8 -8 -9 -11 -16 -20 -22 -25 -26 -27 -27 -27 -28 -27 -25 -24 -24 -23 -24 -24 -24 -24 -23 -24 -25 -26 -28 -29 -30 -33 -34 -35 -34 -34 -34 -35 -36 -35 -29 -26 -25 -23 -19
-3 -8 -9 -11 -15 -20 -24 -26 -27 -27 -26 -28 -27 -26 -24 -24 -24 -24 -25 -24 -24 -23 -23 -24 -26 -28 -30 -32 -34 -35 -35 -35 -24 -31 -33 -34 -35 -34 -28 -26 -32 -32 -30
-2 -7 -9 -13 -17 -21 -23 -26 -27 -26 -26 -27 -25 -24 -24 -24 -24 -25 -25 -25 -24 -23 -23 -24 -27 -29 -32 -34 -35 -35 -34 -34 -34 -32 -34 -34 -35 -33 -25 -27 -33 -31 -30
-2 -7 -10 -13 -18 -16 -9 -27 -27 -24 -24 -24 -24 -25 -24 -24 -24 -26 -25 -25 -24 -23 -23 -25 -28 -31 -35 -35 -34 -34 -33 -32 -32 -32 -34 -34 -35 -33 -28 -27 -31 -32 -31
-3 -5 -10 -14 -15 -4 -16 -26 -25 -23 -23 -23 -25 -25 -24 -25 -26 -26 -25 -25 -24 -23 -24 -27 -32 -35 -35 -34 -34 -31 -31 -31 -30 -30 -31 -30 -30 -33 -30 -31 -31 -33 -33
-3 -4 -8 -12 -4 -7 -20 -24 -25 -24 -24 -24 -24 -24 -24 -25 -26 -26 -25 -25 -24 -24 -26 -28 -31 -32 -33 -34 -34 -33 -31 -26 -27 -17 -28 -29 -28 -29 -24 -30 -31 -31 -33

GFSMA_850_dewp_192.txt.gz
Dewpoint
-11 -11 -12 -14 -15 -15 -15 -15 -15 -16 -16 -15 -17 -16 -16 -15 -12 0 -10 -7 -7 -8 -10 -11 -10 -11 -13 -15 -11 -2 -1 -1 -1 1 3 3 4 5 3 3 1 -2 -5
-11 -11 -12 -14 -15 -15 -15 -15 -15 -16 -15 -16 -16 -14 -13 -12 -11 -9 -5 -9 -8 -9 -11 -14 -17 -18 -18 -14 -4 1 1 0 1 3 3 4 4 4 3 -0 3 5 5
-10 -10 -12 -14 -15 -14 -15 -15 -16 -15 -15 -16 -15 -13 -10 -9 -10 -8 -2 -0 -6 -13 -16 -18 -19 -17 -13 -1 -1 -3 -6 -5 -1 2 2 2 2 3 3 3 2 3 5
-9 -11 -12 -14 -14 -14 -15 -15 -14 -14 -13 -8 -7 -5 -4 -5 -8 -9 -10 -8 -9 -5 -14 -18 -16 -16 -12 -9 -4 -4 -7 -6 2 2 2 1 2 2 2 2 2 2 4
-9 -11 -12 -14 -14 -14 -15 -14 -14 -14 -14 -10 -8 -5 -2 -2 -5 -7 -8 -10 -14 -15 -8 -15 -14 -14 -14 -15 -15 -13 -9 -2 1 1 1 1 1 1 1 1 1 1 1
-9 -11 -12 -14 -13 -14 -14 -14 -14 -14 -14 -11 -6 -4 -3 -4 -4 -3 -6 -7 -16 -15 -16 -14 -5 -7 -14 -18 -18 -18 -8 -0 0 1 1 -0 -0 -0 -0 0 1 1 0
-10 -12 -13 -13 -13 -14 -13 -14 -14 -15 -12 -15 -6 -4 -3 -10 -7 -3 -4 -5 -10 -12 -16 -15 -11 -7 -4 -12 -19 -19 -17 -10 -2 -1 -1 -1 -1 -1 -1 -1 -0 1 1
-10 -12 -13 -13 -13 -13 -13 -14 -14 -16 -14 -11 -3 -3 -4 -5 -5 -8 -5 -5 -12 -5 -9 -16 -20 -20 -8 -5 -21 -23 -20 -9 -4 -2 -2 -2 -2 -2 -2 -1 -1 -1 -0
-11 -12 -13 -12 -12 -13 -13 -13 -15 -17 -16 -13 -11 -5 -6 -7 -5 -5 -7 -6 -7 -5 -8 -13 -21 -23 -23 -5 -11 -11 -19 -11 -5 -4 -3 -2 -2 -2 -2 -2 -2 -2 -2
-11 -12 -12 -12 -12 -13 -13 -14 -16 -17 -20 -22 -20 -23 -17 -7 -8 -8 -7 -5 -7 -7 -17 -15 -21 -25 -30 -10 -19 -14 -22 -14 -9 -7 -4 -3 -3 -3 -3 -3 -3 -2 -2
-10 -12 -12 -12 -12 -13 -13 -15 -15 -16 -20 -22 -16 -24 -18 -16 -17 -12 -9 -8 -7 -7 -13 -21 -24 -28 -29 -20 -9 -23 -24 -22 -9 -9 -8 -8 -7 -5 -5 -5 -4 -4 -3
-9 -10 -12 -11 -12 -13 -14 -14 -16 -18 -21 -23 -23 -9 -9 -10 -10 -12 -11 -9 -9 -6 -7 -16 -23 -28 -28 -15 -19 -28 -25 -22 -13 -16 -13 -12 -24 -11 -8 -8 -6 -5 -4
-10 -11 -11 -11 -13 -13 -14 -14 -15 -20 -23 -24 -25 -19 -23 -15 -14 -11 -11 -10 -10 -7 -7 -12 -22 -27 -28 -18 -16 -27 -26 -26 -24 -20 -16 -20 -30 -20 -18 -12 -8 -7 -7
-10 -10 -10 -10 -13 -14 -12 -14 -19 -20 -23 -25 -25 -25 -23 -25 -24 -14 -10 -11 -11 -9 -8 -7 -12 -24 -24 -28 -29 -25 -12 -27 -26 -21 -23 -33 -31 -30 -30 -21 -14 -10 -10
-2 -6 -11 -11 -14 -15 -17 -18 -18 -21 -23 -25 -26 -26 -25 -25 -24 -24 -21 -15 -10 -12 -12 -8 -14 -24 -27 -26 -30 -26 -13 -29 -24 -22 -30 -32 -30 -30 -31 -29 -24 -19 -13
-2 -9 -11 -12 -14 -17 -18 -18 -19 -21 -24 -25 -26 -26 -25 -24 -25 -24 -24 -23 -23 -11 -11 -12 -15 -20 -27 -27 -28 -27 -26 -24 -22 -26 -30 -31 -31 -31 -31 -29 -28 -25 -20
-2 -9 -10 -11 -12 -13 -14 -15 -20 -22 -24 -25 -26 -26 -25 -25 -23 -23 -23 -22 -22 -14 -11 -14 -16 -23 -21 -22 -23 -25 -24 -14 -16 -28 -30 -31 -32 -32 -32 -31 -31 -30 -27
-1 -9 -8 -8 -7 -10 -13 -19 -21 -22 -24 -26 -26 -26 -26 -25 -23 -22 -22 -22 -21 -22 -15 -14 -14 -14 -17 -25 -24 -25 -26 -23 -22 -28 -31 -33 -33 -33 -31 -29 -29 -29 -28
0 -2 -0 -1 -10 -10 -16 -19 -21 -22 -24 -26 -26 -26 -26 -25 -23 -22 -22 -22 -23 -22 -16 -15 -14 -16 -15 -23 -15 -17 -22 -18 -23 -31 -34 -34 -34 -31 -28 -27 -29 -31 -29
1 1 -1 -3 -6 -12 -18 -19 -21 -23 -25 -26 -27 -27 -26 -24 -23 -22 -22 -22 -22 -16 -16 -13 -14 -14 -14 -20 -21 -17 -13 -13 -16 -33 -21 -24 -18 -17 -23 -27 -32 -34 -31
2 1 -0 -4 -9 -14 -17 -19 -21 -24 -26 -27 -28 -28 -26 -24 -23 -22 -22 -23 -23 -19 -11 -12 -12 -12 -13 -14 -25 -30 -13 -13 -14 -32 -22 -14 -15 -12 -13 -15 -33 -36 -35
2 0 -6 -7 -8 -14 -17 -19 -22 -24 -26 -27 -28 -28 -25 -23 -23 -23 -23 -23 -23 -22 -16 -11 -19 -23 -28 -30 -33 -26 -28 -13 -12 -16 -35 -11 -26 -12 -12 -27 -35 -35 -35
2 0 -5 -6 -10 -14 -17 -20 -23 -25 -26 -27 -28 -27 -25 -23 -23 -23 -23 -24 -23 -23 -23 -23 -24 -26 -29 -33 -35 -29 -33 -23 -22 -32 -36 -11 -22 -15 -23 -13 -33 -35 -35
1 0 -0 -3 -9 -14 -17 -20 -23 -25 -26 -27 -28 -26 -24 -23 -23 -23 -24 -24 -24 -23 -23 -23 -25 -28 -32 -35 -36 -35 -34 -17 -14 -17 -35 -12 -20 -18 -26 -17 -27 -33 -34
0 -0 -1 -3 -6 -12 -16 -20 -22 -12 -26 -27 -27 -25 -23 -23 -23 -24 -24 -24 -23 -23 -23 -23 -26 -31 -35 -36 -37 -21 -20 -13 -11 -13 -32 -25 -16 -21 -20 -14 -18 -26 -31
-1 -2 -3 -3 -4 -11 -16 -19 -7 -19 -24 -24 -23 -21 -22 -22 -23 -25 -21 -23 -24 -24 -24 -25 -27 -30 -33 -35 -35 -35 -26 -14 -13 -11 -24 -25 -13 -15 -12 -13 -13 -13 -17

GFSMA_850_dewp_195.txt.gz
Dewpoint
0 2 0 -2 -6 -3 -8 -2 -8 -5 -8 -9 -9 -11 -6 3 4 4 -6 -3 -6 -8 -9 -10 -6 -3 -2 3 -0 -5 -7 -5 1 3 2 2 2 2 -0 -3 -5 -3 0
-2 -2 -3 -1 -1 -2 -2 -3 -2 -0 0 -6 -9 -5 -2 1 3 4 -7 -7 -9 -11 -14 -17 -19 -17 -3 -5 -10 -14 -13 -11 -3 -0 -1 -0 0 1 2 2 2 -0 -0
-4 -1 -3 -1 -2 -2 -3 -3 -2 1 0 -0 -6 -10 -4 1 2 2 2 -1 -9 -13 -18 -20 -21 -20 -13 -7 -10 -5 -6 -9 -1 1 2 0 -1 -1 -1 -1 1 0 0
-6 -6 -1 -1 -2 -7 -9 -11 -2 0 -0 -1 -1 -1 0 1 -0 -0 -1 -2 -2 -3 -15 -20 -22 -21 -18 -15 -7 -1 3 2 2 2 2 2 2 1 1 1 1 2 3
-9 -7 -2 -2 -10 -11 -7 -5 -1 -0 -0 -1 -1 -1 -1 -1 -2 -1 -2 -7 -11 -7 -4 -15 -19 -18 -20 -22 -22 -11 1 1 1 1 1 2 1 1 1 1 1 1 2
-9 -8 -1 -8 -13 -9 -9 -5 -1 -0 -1 -2 -3 -2 -1 -1 -1 -1 -2 -2 -7 -14 -15 -6 -3 -13 -16 -21 -23 -17 -7 0 1 1 1 1 -0 0 0 0 1 1 1
-9 -9 -6 -10 -13 -10 -12 -11 -5 -5 -4 -6 -6 -2 -1 -0 -1 -2 -2 -2 -6 -17 -22 -22 -11 -4 -4 -11 -24 -26 -24 -14 -1 -1 -1 -1 -1 -1 -1 -1 -0 -0 0
-9 -9 -9 -11 -13 -12 -13 -13 -11 -9 -9 -9 -3 -3 -2 -2 -2 -2 -4 -4 -3 -6 -14 -22 -21 -12 -4 -3 -16 -25 -26 -21 -12 -2 -2 -2 -2 -2 -2 -1 -1 -1 -1
-8 -9 -10 -11 -13 -13 -13 -13 -13 -8 -7 -8 -2 -4 -3 -3 -3 -5 -4 -4 -3 -4 -7 -13 -22 -14 -7 -5 -13 -26 -28 -24 -15 -6 -6 -6 -3 -2 -2 -2 -2 -2 -2
-7 -8 -10 -12 -12 -13 -13 -13 -14 -12 -13 -15 -6 -5 -7 -4 -5 -5 -4 -3 -3 -3 -5 -10 -14 -18 -16 -5 -22 -27 -28 -26 -18 -15 -17 -10 -7 -5 -5 -4 -3 -3 -3
-6 -8 -10 -11 -12 -12 -12 -13 -14 -16 -15 -15 -17 -17 -16 -8 -7 -7 -6 -4 -5 -5 -5 -9 -15 -14 -15 -12 -19 -27 -28 -29 -28 -24 -24 -21 -24 -18 -7 -5 -5 -8 -4
-4 -7 -10 -11 -12 -12 -13 -14 -14 -17 -17 -17 -14 -19 -17 -15 -17 -10 -8 -6 -6 -5 -6 -8 -14 -15 -14 -11 -23 -28 -26 -29 -29 -29 -28 -29 -29 -25 -16 -10 -7 -6 -8
-4 -7 -10 -12 -12 -12 -13 -13 -16 -18 -18 -12 -13 -20 -15 -8 -8 -9 -9 -8 -7 -5 -6 -7 -13 -16 -16 -11 -19 -28 -26 -28 -29 -28 -28 -29 -29 -28 -24 -19 -16 -12 -9
-3 -5 -10 -11 -12 -12 -13 -14 -17 -17 -19 -20 -20 -13 -10 -7 -8 -8 -9 -8 -8 -6 -6 -5 -11 -14 -13 -21 -27 -26 -19 -27 -27 -27 -28 -28 -28 -28 -26 -24 -21 -19 -13
-1 -5 -9 -11 -12 -12 -13 -14 -17 -18 -18 -18 -21 -19 -8 -10 -8 -8 -8 -8 -9 -8 -8 -6 -9 -16 -16 -17 -26 -16 -9 -26 -26 -26 -27 -27 -28 -28 -28 -25 -23 -22 -19
-2 -5 -9 -11 -12 -12 -14 -15 -15 -17 -15 -15 -16 -16 -10 -15 -16 -18 -18 -13 -10 -8 -8 -9 -13 -13 -20 -17 -25 -18 -19 -24 -23 -26 -27 -29 -30 -32 -32 -30 -25 -24 -23
-2 -4 -9 -11 -11 -12 -12 -8 -16 -16 -13 -9 -9 -13 -14 -15 -16 -18 -18 -17 -14 -10 -8 -12 -12 -16 -17 -12 -14 -14 -12 -11 -19 -26 -29 -32 -35 -35 -35 -34 -32 -28 -25
-1 -3 -6 -7 -9 -12 -15 -17 -14 -10 -1 -3 -17 -16 -21 -22 -17 -13 -15 -13 -11 -13 -9 -11 -12 -12 -11 -17 -16 -12 -13 -15 -16 -27 -34 -36 -37 -36 -33 -34 -34 -31 -29
-1 -1 -3 -4 -9 -12 -15 -9 -5 -0 0 -13 -20 -23 -25 -23 -14 -13 -14 -15 -15 -19 -11 -11 -11 -12 -11 -16 -11 -13 -14 -10 -18 -24 -32 -32 -31 -20 -22 -27 -34 -33 -30
1 0 -2 -3 -3 -5 -2 -0 1 0 -13 -19 -22 -24 -24 -23 -22 -21 -20 -19 -20 -17 -13 -11 -11 -12 -11 -16 -13 -12 -11 -10 -11 -20 -16 -16 -15 -12 -11 -20 -33 -36 -33
1 1 0 1 -1 -0 1 1 -0 -11 -18 -20 -23 -24 -24 -24 -23 -22 -22 -21 -21 -18 -11 -10 -10 -11 -12 -11 -10 -17 -11 -11 -10 -16 -29 -11 -13 -11 -11 -14 -35 -35 -36
2 2 2 1 -0 -0 0 -1 -9 -16 -19 -22 -23 -24 -25 -25 -23 -22 -22 -22 -21 -17 -11 -8 -9 -10 -16 -22 -22 -12 -26 -11 -8 -12 -34 -9 -16 -10 -11 -14 -29 -34 -35
2 2 1 0 -0 -0 -1 -2 -13 -17 -19 -22 -24 -26 -26 -25 -23 -22 -22 -22 -22 -22 -20 -19 -22 -21 -24 -27 -31 -19 -32 -25 -21 -27 -37 -9 -11 -11 -17 -12 -22 -33 -34
0 1 1 1 0 -0 -1 -7 -13 -16 -19 -22 -25 -27 -26 -25 -23 -23 -22 -23 -23 -23 -23 -23 -23 -23 -24 -28 -33 -35 -34 -17 -14 -19 -33 -10 -12 -11 -18 -14 -13 -19 -23
2 1 0 -1 -1 -1 -2 -4 -12 -15 -18 -23 -26 -27 -26 -25 -23 -23 -23 -23 -23 -23 -23 -23 -23 -24 -25 -33 -36 -33 -15 -10 -9 -10 -26 -32 -11 -12 -13 -12 -12 -12 -14
1 1 1 -0 -2 -2 -3 -5 -13 -15 -18 -23 -23 -15 -24 -24 -24 -24 -23 -23 -23 -23 -23 -24 -24 -25 -28 -33 -35 -34 -22 -11 -11 -10 -13 -31 -12 -13 -11 -11 -12 -12 -13

GFSMA_850_dewp_198.txt.gz
Dewpoint
2 -3 -3 -11 -13 -14 -12 -3 -5 -7 -9 -7 -4 1 3 5 2 -3 -2 -3 -5 -9 -12 -15 -9 2 -4 -12 -15 -11 -3 4 3 2 1 -2 -7 -8 -11 -14 -15 -11 -11
3 -1 -3 -3 -8 -5 -4 -4 -6 -9 -9 -9 -7 -5 1 3 -0 -7 -8 -5 -8 -11 -16 -18 -8 2 3 0 -3 -5 -7 0 1 -3 -4 -5 -7 -9 -11 -13 -11 -13 -11
3 3 1 -1 -3 -4 -4 -5 -5 -4 -5 -6 -4 -2 -3 3 1 -4 -3 -5 -9 -13 -18 -21 -22 -18 -8 -1 2 1 2 3 3 3 3 2 -2 -2 -4 -4 -2 -2 -3
3 1 -2 -2 -4 -4 -4 -5 -4 -1 -3 -4 -7 -5 -2 -2 -1 1 -1 -3 -5 -8 -14 -20 -20 -21 -23 -21 -3 3 3 -2 -8 -8 -6 -4 -4 -2 -5 -7 -5 -3 -1
2 -2 -4 -3 -4 -6 -7 -7 -3 -3 -4 -4 -3 -0 -0 -3 -4 -6 -6 -4 -3 -6 -11 -13 -12 -14 -22 -26 -25 -16 -10 -5 1 1 1 -4 -3 -1 -4 -1 -2 -2 -4
0 -2 -3 -4 -6 -7 -9 -8 -3 -2 -3 -2 -1 -1 -3 -3 -3 -5 -9 -9 -11 -10 -11 -10 -9 -8 -14 -20 -25 -24 -9 1 1 -1 -2 -4 -0 -2 -2 -3 -0 -1 0
-2 -3 -2 -4 -7 -8 -10 -7 -2 -1 -1 -1 -3 -2 -1 -1 -1 -1 -2 -3 -11 -15 -15 -6 -5 -5 -9 -20 -23 -25 -20 -3 -3 -5 -7 -10 -2 -2 -2 -1 -0 -0 0
-4 -3 -3 -6 -7 -9 -9 -6 -3 -0 -1 -3 -4 -4 -1 -1 -1 -1 -1 -2 -12 -13 -16 -14 -11 -3 -4 -16 -22 -25 -27 -21 -4 -9 -10 -2 -2 -2 -4 -2 -2 -2 -2
-3 -5 -4 -7 -7 -9 -11 -9 -7 -6 -5 -5 -7 -8 -3 -3 -2 -2 -4 -6 -6 -5 -9 -16 -15 -11 -8 -16 -20 -25 -27 -26 -22 -19 -11 -10 -5 -3 -4 -4 -6 -4 -3
0 -5 -5 -7 -7 -10 -10 -9 -8 -7 -8 -9 -3 -6 -3 -6 -4 -4 -4 -3 -3 -4 -6 -11 -17 -14 -8 -17 -20 -26 -27 -27 -28 -25 -22 -16 -12 -13 -15 -15 -12 -4 -5
2 -3 -4 -6 -7 -10 -10 -11 -10 -7 -10 -10 -8 -8 -4 -4 -5 -6 -3 -3 -4 -4 -6 -11 -13 -12 -10 -18 -23 -26 -27 -28 -28 -28 -28 -26 -27 -26 -24 -19 -19 -6 -5
2 -0 -2 -4 -7 -8 -11 -12 -11 -9 -9 -7 -9 -9 -6 -8 -5 -5 -6 -5 -6 -4 -6 -11 -16 -14 -11 -14 -20 -26 -27 -27 -28 -28 -28 -28 -28 -28 -28 -27 -24 -12 -6
3 0 -1 -3 -5 -9 -12 -12 -12 -9 -9 -11 -12 -13 -9 -12 -13 -8 -6 -6 -6 -5 -6 -7 -13 -15 -10 -17 -19 -26 -26 -26 -27 -27 -27 -27 -28 -27 -28 -28 -27 -23 -14
3 1 -1 -3 -6 -9 -11 -11 -12 -11 -11 -12 -15 -16 -17 -15 -9 -14 -6 -6 -4 -5 -6 -7 -10 -15 -14 -18 -23 -25 -21 -24 -26 -26 -26 -27 -27 -28 -29 -30 -30 -28 -24
3 2 -0 -3 -6 -8 -11 -11 -12 -13 -13 -13 -13 -15 -16 -11 -10 -8 -7 -7 -7 -5 -5 -5 -8 -14 -19 -20 -22 -23 -22 -24 -25 -25 -26 -27 -28 -31 -35 -37 -36 -34 -30
3 3 0 -2 -6 -8 -10 -11 -12 -13 -15 -15 -14 -17 -15 -12 -12 -11 -6 -7 -7 -7 -5 -6 -8 -12 -19 -21 -25 -20 -21 -24 -23 -25 -27 -29 -33 -36 -38 -39 -39 -38 -35
2 2 1 -1 -3 -5 -7 -11 -12 -14 -15 -18 -16 -17 -15 -9 -2 -12 -7 -7 -8 -6 -7 -8 -11 -14 -19 -19 -19 -19 -20 -22 -22 -24 -28 -33 -36 -39 -39 -40 -40 -39 -38
2 2 0 -0 -2 -3 -6 -8 -13 -14 -16 -14 -14 -11 -2 0 -5 -12 -13 -13 -10 -9 -9 -10 -12 -17 -17 -15 -16 -15 -14 -17 -21 -23 -32 -35 -35 -36 -36 -39 -40 -38 -38
2 1 0 0 -1 -3 -6 -8 -9 -13 -13 -7 -5 -0 -0 -1 -11 -9 -15 -16 -17 -10 -8 -10 -14 -14 -13 -17 -16 -15 -15 -13 -16 -22 -31 -26 -22 -25 -28 -38 -38 -39 -37
2 2 1 0 -1 -5 -8 -9 -7 -8 -4 -7 2 0 -1 -13 -12 -12 -14 -15 -17 -11 -10 -12 -12 -11 -13 -14 -12 -12 -11 -11 -13 -18 -27 -15 -15 -13 -26 -29 -34 -38 -37
2 2 1 0 -1 -5 -5 -8 -3 -2 -5 1 1 -1 -15 -16 -14 -13 -15 -17 -18 -14 -11 -12 -13 -12 -11 -14 -17 -13 -9 -10 -12 -14 -16 -13 -13 -11 -11 -22 -26 -36 -36
2 2 1 0 -0 -0 -1 -1 -1 -3 -0 0 1 -9 -15 -18 -14 -12 -14 -16 -19 -17 -13 -12 -12 -13 -14 -16 -15 -19 -20 -14 -14 -10 -15 -11 -12 -15 -18 -26 -26 -30 -35
2 2 1 -0 -0 -0 -0 -1 -2 -1 -0 0 -2 -16 -18 -18 -18 -15 -17 -18 -17 -14 -15 -14 -15 -15 -15 -19 -22 -24 -27 -25 -15 -13 -28 -15 -12 -14 -24 -30 -27 -23 -28
1 1 0 1 0 0 -1 -1 -1 -1 -1 -2 -13 -16 -19 -21 -21 -22 -22 -22 -20 -15 -14 -16 -16 -20 -21 -23 -24 -26 -30 -33 -26 -23 -32 -15 -13 -18 -25 -24 -19 -16 -18
1 0 -0 -0 -1 -1 -1 -1 -1 -2 -3 -10 -14 -16 -19 -21 -24 -24 -23 -23 -22 -20 -20 -20 -22 -22 -23 -23 -25 -27 -31 -27 -11 -15 -20 -34 -22 -23 -20 -14 -13 -13 -14
1 0 0 -0 -0 -0 -1 -1 -1 -2 -4 -9 -14 -18 -20 -22 -25 -24 -23 -23 -22 -22 -22 -23 -23 -23 -23 -24 -25 -28 -21 -15 -11 -11 -16 -20 -27 -23 -13 -11 -11 -12 -12

GFSMA_850_dewp_201.txt.gz
Dewpoint
5 -2 -9 -11 -13 -14 -17 -16 -12 -7 -3 0 3 -1 2 3 -0 -6 -6 -8 -11 -12 -7 5 1 -7 -13 -20 -18 -11 -11 -19 -19 -21 -23 -24 -24 -23 -22 -22 -20 -20 -19
4 -1 -7 -8 -12 -14 -17 -16 -12 -8 -3 -2 1 1 0 2 -1 -7 -4 -9 -13 -14 -17 -15 -7 -12 -9 -8 -6 -3 -2 -0 -1 -4 -4 -8 -10 -12 -13 -11 -10 -8 -9
4 0 -4 -4 -12 -14 -12 -10 -6 -7 -8 -6 -0 1 -1 1 -2 -9 -7 -11 -14 -17 -19 -22 -23 -17 -8 2 3 3 2 2 -1 -3 -9 -10 -8 -10 -14 -16 -12 -8 -6
6 4 -1 -5 -9 -9 -6 -5 -6 -8 -8 -8 -5 -1 -1 -2 -2 -5 -5 -9 -11 -14 -21 -23 -25 -25 -18 -3 3 3 3 3 1 -3 -6 -11 -13 -12 -9 -7 -3 -5 -6
7 5 -0 -4 -4 -5 -3 -4 -5 -7 -5 -5 -4 -1 0 -2 -2 -3 -6 -9 -11 -11 -14 -18 -18 -23 -23 -18 -1 2 2 -0 -7 -8 -10 -9 -7 -5 -7 -7 -8 -5 -4
6 4 1 -0 -2 -3 -3 -4 -4 -3 -5 -5 -3 -0 1 1 1 -2 -5 -7 -10 -12 -16 -17 -14 -20 -20 -22 -13 1 0 -4 -10 -9 -6 -4 -14 -14 -13 -9 -10 -8 -6
4 3 3 1 -2 -3 -5 -4 -3 -2 -1 -3 -1 0 -2 -3 -3 -4 -3 -4 -10 -13 -15 -13 -14 -19 -19 -19 -22 -21 -10 -6 -0 -7 -16 -13 -15 -13 -14 -14 -10 -8 -9
7 4 2 -0 -2 -3 -4 -4 -4 -1 -1 -2 -2 -3 -0 -1 -1 -1 -2 -3 -7 -12 -15 -9 -9 -19 -20 -20 -20 -25 -22 -14 -13 -20 -16 -17 -19 -18 -17 -18 -16 -10 -9
7 4 1 -1 -2 -4 -4 -5 -4 -4 -2 -1 -4 -6 -1 -1 -1 -1 -1 -2 -6 -11 -14 -8 -9 -17 -19 -19 -19 -24 -26 -24 -25 -24 -21 -21 -24 -24 -25 -23 -15 -13 -11
7 5 1 0 -1 -3 -4 -6 -4 -4 -5 -3 -2 -8 -9 -10 -2 -2 -2 -2 -5 -7 -8 -13 -11 -18 -19 -20 -21 -25 -26 -27 -27 -27 -26 -26 -27 -26 -26 -24 -23 -18 -10
6 5 2 0 1 -2 -4 -6 -4 -3 -5 -6 -6 -7 -8 -7 -9 -6 -3 -4 -3 -4 -6 -11 -13 -18 -20 -19 -21 -25 -26 -27 -27 -27 -27 -27 -27 -28 -28 -27 -26 -23 -18
6 4 3 -0 1 -0 -3 -6 -7 -5 -5 -4 -6 -7 -9 -7 -6 -8 -8 -3 -3 -3 -5 -7 -12 -18 -19 -20 -20 -23 -26 -26 -27 -27 -26 -27 -28 -28 -28 -29 -30 -28 -21
5 5 3 1 0 0 -2 -5 -5 -5 -4 -5 -6 -9 -8 -7 -8 -8 -11 -4 -3 -3 -4 -7 -14 -18 -18 -18 -17 -23 -26 -25 -26 -26 -26 -27 -28 -28 -29 -32 -33 -34 -33
7 6 4 2 1 1 -1 -4 -4 -5 -5 -6 -6 -9 -6 -6 -6 -8 -10 -8 -4 -5 -5 -9 -9 -14 -18 -18 -19 -25 -23 -23 -26 -26 -26 -27 -27 -29 -31 -33 -36 -37 -38
5 6 4 4 2 1 -0 -2 -4 -5 -5 -6 -7 -8 -6 -4 -7 -7 -8 -9 -10 -5 -6 -7 -10 -12 -17 -18 -21 -23 -19 -22 -25 -25 -26 -27 -28 -31 -32 -34 -38 -39 -40
5 5 5 4 3 1 0 -1 -3 -3 -2 -1 -1 -4 -5 -8 -9 -10 -8 -8 -8 -9 -5 -5 -6 -9 -14 -18 -21 -23 -21 -22 -23 -24 -26 -28 -30 -32 -34 -36 -39 -40 -41
5 4 5 4 3 2 1 -0 -2 -2 -1 -2 -3 -6 -9 -12 -8 -7 -7 -6 -6 -6 -7 -6 -6 -8 -12 -18 -21 -23 -20 -18 -21 -24 -26 -30 -32 -33 -36 -37 -40 -40 -40
4 4 4 4 4 3 1 1 1 -1 -2 -1 -3 -5 -8 -7 -7 -7 -6 -4 -3 -4 -6 -8 -6 -8 -14 -19 -20 -19 -18 -18 -19 -21 -28 -32 -31 -32 -33 -36 -40 -40 -39
4 3 3 3 3 3 2 1 0 -1 -2 -3 -2 -4 -6 -9 -7 -2 0 1 -3 -6 -6 -6 -7 -11 -15 -17 -15 -17 -18 -18 -17 -19 -28 -30 -26 -30 -29 -36 -40 -39 -38
4 3 3 2 2 2 1 1 -0 -1 -2 -2 -3 -6 -9 -2 -1 1 1 -2 -5 -7 -8 -8 -10 -12 -16 -15 -16 -15 -16 -15 -14 -17 -21 -22 -23 -25 -32 -34 -34 -36 -37
4 3 2 2 2 2 1 1 0 -1 -1 -3 -4 -7 -1 1 0 0 0 -11 -9 -10 -10 -9 -11 -13 -13 -15 -16 -13 -12 -11 -12 -13 -14 -16 -19 -21 -30 -32 -24 -34 -36
4 3 2 2 2 2 1 0 -1 -1 -5 -5 -5 -0 -0 -0 -0 -0 -10 -12 -10 -11 -11 -10 -12 -15 -16 -17 -14 -13 -12 -11 -11 -13 -10 -17 -20 -22 -23 -26 -22 -31 -35
4 3 3 2 2 1 0 -0 -2 -4 -4 -2 -1 -0 -0 -1 -1 -11 -15 -13 -12 -11 -12 -15 -16 -17 -17 -17 -16 -15 -15 -16 -16 -14 -13 -25 -28 -25 -17 -20 -25 -27 -31
3 2 2 1 1 0 -0 -1 -2 -2 -2 -2 -2 -1 -1 -0 -5 -13 -11 -12 -13 -12 -11 -12 -14 -16 -16 -17 -16 -17 -19 -20 -17 -15 -20 -30 -27 -19 -18 -22 -21 -20 -21
2 2 1 1 0 -0 -1 -1 -1 -2 -3 -2 -2 -2 -2 -1 -5 -13 -9 -12 -14 -14 -11 -11 -12 -12 -13 -14 -19 -23 -24 -25 -24 -26 -26 -31 -32 -27 -21 -17 -14 -16 -16
2 2 1 1 0 -0 -0 -1 -1 -2 -2 -2 -2 -3 -3 -4 -10 -14 -11 -12 -15 -16 -15 -12 -11 -11 -12 -17 -24 -26 -27 -29 -27 -20 -20 -24 -29 -25 -17 -11 -11 -15 -13

GFSMA_850_dewp_204.txt.gz
Dewpoint
10 9 5 -8 -13 -13 -16 -18 -15 -10 -9 -6 -1 1 3 3 2 -1 -1 -6 -9 -1 5 3 1 -2 -7 -11 -10 -8 -6 -5 -9 -13 -18 -17 -20 -21 -18 -20 -18 -17 -15
10 9 5 -8 -13 -13 -16 -17 -14 -6 -5 -5 -1 2 2 2 1 -3 -2 -6 -9 -4 -2 -6 -2 -0 1 -4 -11 -12 -9 -10 -8 -10 -13 -18 -21 -21 -20 -19 -20 -19 -21
11 9 4 -6 -11 -13 -16 -14 -8 -3 -2 -2 0 2 4 3 1 -4 -1 -4 -10 -13 -17 -15 -12 -5 3 3 -3 -8 -11 -4 -10 -7 -3 -4 -12 -13 -15 -17 -16 -20 -17
11 8 2 -5 -9 -13 -15 -15 -10 -4 -0 -0 0 2 3 3 1 -6 -4 -9 -13 -16 -19 -21 -21 -9 2 4 2 -4 -12 -1 1 1 -2 -12 -15 -15 -12 -14 -14 -11 -10
12 8 4 -2 -4 -12 -15 -14 -10 -5 -0 0 1 2 3 2 -1 -5 -6 -8 -10 -15 -19 -23 -23 -23 -19 -8 0 2 -0 1 2 -1 -10 -13 -13 -9 -13 -14 -12 -11 -10
12 9 6 2 1 -12 -12 -8 -6 -3 -3 -2 1 2 2 0 -1 -3 -5 -7 -9 -11 -14 -18 -20 -21 -22 -12 2 2 2 -0 -8 -3 -7 -11 -14 -16 -22 -23 -15 -15 -16
11 8 6 5 1 -7 -8 -5 -2 -3 -2 -1 -0 2 2 1 0 -2 -3 -6 -8 -10 -13 -15 -15 -16 -19 -19 -14 -3 -3 -5 -6 -3 -6 -16 -23 -23 -24 -16 -19 -16 -16
11 8 7 7 2 -3 -3 -2 -1 -1 -1 -1 0 1 0 -0 -1 -1 -2 -3 -5 -8 -13 -15 -14 -15 -14 -17 -20 -12 -10 -7 -6 -7 -17 -24 -22 -22 -22 -22 -23 -28 -25
11 9 7 6 4 0 -2 -2 -2 -3 -1 -0 -2 -4 -1 -1 -1 -1 -2 -3 -4 -7 -11 -14 -16 -14 -14 -16 -19 -24 -24 -24 -22 -20 -24 -25 -25 -25 -25 -27 -26 -22 -21
10 10 7 6 4 2 -0 -2 -2 -2 -2 -2 -1 -5 -6 -7 -1 -1 -1 -2 -2 -7 -11 -14 -15 -12 -13 -15 -18 -24 -26 -26 -26 -25 -26 -26 -27 -27 -28 -25 -21 -25 -22
10 10 9 7 5 4 1 -1 -1 -1 -2 -4 -4 -3 -5 -6 -6 -3 -2 -2 -3 -5 -8 -11 -16 -15 -14 -14 -17 -24 -26 -26 -27 -27 -26 -26 -27 -28 -28 -27 -27 -28 -26
10 9 9 9 7 4 2 -0 -1 -1 -2 -2 -3 -4 -5 -7 -8 -7 -5 -3 -4 -5 -5 -6 -12 -15 -15 -14 -16 -21 -26 -26 -26 -26 -26 -27 -28 -28 -28 -30 -31 -31 -25
10 9 9 9 7 4 2 1 -1 -1 -1 -1 -2 -3 -4 -6 -9 -9 -9 -4 -4 -5 -8 -8 -8 -11 -13 -15 -17 -21 -25 -25 -26 -26 -26 -27 -28 -28 -30 -31 -32 -35 -36
10 9 9 8 7 6 3 2 0 -1 -2 -0 -0 -2 -3 -4 -6 -8 -9 -9 -4 -6 -8 -7 -7 -9 -14 -15 -17 -21 -25 -24 -25 -26 -26 -27 -28 -29 -30 -31 -33 -36 -38
9 9 8 7 7 6 4 2 2 0 -2 0 1 -0 -1 -3 -4 -5 -6 -9 -12 -5 -5 -6 -8 -10 -13 -16 -17 -20 -23 -21 -24 -25 -26 -27 -28 -30 -31 -33 -36 -38 -39
8 8 8 6 6 6 5 3 3 3 1 0 1 1 0 -1 -3 -3 -4 -7 -10 -11 -6 -5 -8 -10 -12 -15 -16 -19 -20 -22 -24 -23 -26 -27 -28 -30 -32 -34 -37 -39 -40
7 8 7 7 6 5 5 4 3 3 1 1 1 1 0 -1 -1 -3 -5 -5 -8 -8 -8 -6 -4 -8 -10 -13 -16 -18 -21 -21 -21 -23 -25 -27 -29 -31 -33 -35 -38 -40 -40
7 7 7 6 6 5 5 4 4 3 1 1 1 2 1 1 0 -0 -1 -5 -6 -7 -7 -2 -2 -4 -8 -12 -16 -20 -21 -18 -19 -21 -24 -28 -30 -30 -31 -35 -40 -40 -40
7 7 6 6 6 5 5 5 4 3 3 1 1 1 1 0 0 -1 -3 -4 -6 -6 -3 0 -3 -4 -7 -11 -16 -19 -16 -14 -17 -19 -24 -29 -28 -28 -30 -35 -39 -39 -39
7 6 6 5 5 5 5 4 4 3 3 2 1 1 1 0 -0 -2 -3 -4 -4 -2 0 -0 -3 -5 -8 -11 -18 -19 -15 -13 -17 -18 -20 -25 -23 -23 -27 -32 -36 -38 -38
6 5 5 5 4 4 4 4 3 3 2 2 1 -0 -0 -0 -0 -2 -3 -4 -1 -0 0 -2 -2 -6 -9 -13 -15 -17 -15 -15 -16 -14 -16 -18 -18 -20 -22 -27 -28 -37 -37
5 5 5 4 4 3 3 3 3 2 2 1 0 -1 -1 -0 -1 -2 -3 1 1 1 -1 -3 -5 -6 -9 -11 -15 -16 -16 -14 -15 -14 -12 -13 -16 -19 -20 -19 -22 -36 -36
5 5 4 4 3 3 3 2 2 1 1 0 -0 -1 -1 -1 -2 -3 0 1 0 -0 -2 -7 -7 -7 -9 -11 -15 -16 -16 -16 -17 -14 -13 -11 -14 -19 -17 -14 -17 -30 -33
5 4 4 3 3 2 2 2 1 0 -0 -0 -1 -1 -2 -2 -4 -0 -0 -0 -3 -6 -7 -8 -9 -10 -11 -13 -15 -17 -18 -15 -14 -12 -11 -11 -16 -23 -15 -13 -20 -26 -26
4 3 3 3 2 2 2 1 0 -0 -1 -1 -2 -2 -2 -3 -2 0 -0 -2 -5 -7 -8 -9 -8 -9 -11 -13 -15 -15 -14 -13 -11 -10 -11 -12 -21 -21 -13 -18 -23 -24 -19
3 3 2 2 1 1 1 0 -0 -1 -1 -2 -3 -2 -3 -3 -1 -1 -2 -3 -7 -8 -9 -10 -10 -11 -11 -12 -13 -14 -16 -17 -13 -12 -14 -18 -26 -20 -17 -18 -18 -17 -14

GFSMA_850_dewp_207.txt.gz
Dewpoint
7 8 8 4 -10 -14 -16 -18 -17 -14 -9 -5 -3 -2 -1 1 2 1 -1 -9 -5 4 5 4 3 0 -0 -1 2 2 3 -0 -4 -7 -10 -16 -16 -18 -22 -23 -24 -24 -24
8 8 9 5 -10 -13 -15 -18 -17 -13 -8 -5 -2 1 2 3 3 1 -1 -8 -2 5 4 5 3 3 2 -4 -2 -2 2 -4 -11 -13 -18 -19 -16 -19 -20 -19 -19 -22 -23
8 9 9 7 -7 -13 -15 -17 -12 -9 -8 -4 1 3 4 3 3 1 -1 -6 -7 -2 -6 0 4 3 3 1 -9 -4 -5 -5 -6 -19 -20 -21 -18 -11 -17 -16 -12 -11 -14
12 10 10 8 -3 -12 -15 -15 -10 -7 -3 -1 3 5 4 4 3 -0 -0 -2 -8 -11 -15 -12 -8 1 -1 -1 1 -0 -4 -10 -4 -13 -20 -15 -1 0 -4 -4 -12 -14 -18
12 12 10 9 -0 -10 -14 -14 -8 -6 -3 1 4 5 5 5 3 1 -1 -1 -9 -12 -13 -16 -13 -6 -2 2 3 3 3 1 -6 -3 0 0 0 0 -5 -16 -19 -18 -15
11 12 12 9 0 -7 -13 -13 -7 -3 -3 -0 4 5 5 4 3 -1 -4 -7 -10 -12 -16 -18 -21 -17 -10 1 2 3 3 2 1 1 -2 -3 -8 -13 -17 -18 -17 -23 -22
11 11 12 11 3 -3 -10 -13 -6 -3 1 2 3 5 4 3 1 -1 -3 -5 -8 -9 -12 -15 -16 -18 -13 0 2 2 2 2 1 -1 -9 -14 -9 -9 -14 -20 -27 -30 -30
12 12 12 12 7 1 -4 -13 -6 -1 1 2 3 3 3 2 2 1 -1 -3 -5 -8 -10 -12 -13 -14 -15 -16 -6 2 1 1 -3 -13 -17 -16 -15 -18 -17 -24 -29 -29 -28
11 11 11 11 10 5 2 -10 -10 -4 -2 2 2 -0 1 1 1 1 -0 -2 -3 -5 -7 -10 -11 -11 -12 -15 -14 -8 -14 -15 -8 -11 -15 -17 -21 -24 -26 -28 -28 -28 -28
11 11 10 10 11 7 4 -1 -9 -4 -2 -1 2 -1 -3 -4 -1 -1 -1 -2 -2 -3 -6 -9 -11 -11 -10 -12 -16 -20 -22 -23 -22 -19 -19 -25 -26 -28 -28 -27 -28 -28 -28
12 11 11 11 10 7 7 4 -5 -2 -1 -2 -2 -0 -2 -4 -5 -4 -2 -2 -2 -2 -4 -9 -12 -11 -11 -12 -15 -21 -25 -25 -25 -26 -25 -25 -26 -28 -28 -28 -28 -28 -27
12 11 11 11 10 8 7 6 0 -2 -1 -0 -1 -2 -2 -4 -5 -6 -5 -3 -3 -3 -5 -7 -9 -10 -11 -12 -14 -20 -25 -26 -26 -26 -26 -26 -27 -28 -28 -29 -29 -29 -30
12 12 11 11 10 9 8 6 3 0 -1 -0 -1 -2 -2 -2 -5 -6 -6 -4 -3 -4 -5 -6 -6 -8 -10 -13 -13 -17 -23 -26 -26 -26 -26 -27 -28 -28 -30 -30 -30 -31 -31
11 11 11 11 10 10 8 7 5 3 1 -0 -1 -1 -1 -2 -3 -5 -7 -6 -4 -5 -6 -6 -6 -8 -10 -12 -14 -14 -20 -25 -26 -26 -26 -27 -27 -29 -30 -30 -31 -35 -36
11 11 11 11 10 10 9 8 6 4 3 1 0 0 -0 -0 -1 -3 -5 -7 -8 -5 -6 -6 -6 -6 -8 -10 -15 -16 -18 -23 -23 -25 -26 -26 -27 -29 -30 -31 -33 -36 -37
11 11 10 10 10 9 9 8 7 5 3 1 1 1 0 0 0 -1 -2 -4 -6 -8 -5 -5 -6 -7 -7 -10 -14 -16 -16 -19 -20 -25 -25 -26 -27 -30 -31 -31 -34 -37 -39
11 10 10 10 10 9 9 8 7 4 4 2 1 1 1 2 3 -0 0 -2 -3 -5 -7 -6 -6 -6 -7 -9 -9 -14 -15 -17 -18 -22 -24 -26 -28 -31 -32 -33 -36 -38 -39
10 10 10 10 9 8 8 7 6 6 4 4 3 2 2 3 3 2 1 0 -1 -4 -0 -2 -2 -4 -8 -4 -9 -13 -16 -16 -18 -20 -23 -26 -29 -30 -30 -34 -38 -39 -39
10 10 9 9 8 8 7 6 7 6 5 5 4 3 4 3 2 2 2 -0 -0 0 1 -0 -2 -6 -2 -1 -10 -12 -14 -14 -15 -19 -21 -25 -29 -28 -28 -33 -38 -39 -39
10 9 8 7 8 7 7 6 6 6 5 5 5 4 3 2 2 2 2 0 0 0 0 -1 -3 -1 -0 -1 -8 -11 -12 -12 -15 -18 -20 -24 -25 -23 -24 -31 -36 -39 -38
9 9 8 7 7 7 6 6 6 5 5 5 4 4 3 3 2 2 1 0 0 0 -1 -1 -1 0 0 -1 -6 -11 -13 -14 -14 -17 -18 -21 -21 -20 -20 -26 -32 -35 -36
9 8 7 7 6 6 6 6 5 5 4 4 3 3 3 2 2 2 1 0 0 -0 -1 -1 -1 -0 1 -1 -5 -10 -13 -11 -14 -16 -16 -17 -17 -16 -17 -20 -24 -30 -34
7 6 6 6 6 5 5 5 4 4 4 3 3 2 2 1 1 0 -0 -0 -1 -1 -1 -2 -2 1 0 -1 -4 -9 -13 -14 -15 -17 -16 -14 -14 -14 -17 -22 -20 -25 -32
5 5 5 5 5 4 4 4 3 3 3 2 2 1 1 1 -0 -1 -1 -1 -2 -1 -0 -0 -1 -0 -1 -1 -4 -8 -12 -13 -14 -16 -14 -13 -12 -13 -15 -25 -16 -21 -22
4 5 5 4 4 4 3 3 2 2 1 1 1 0 -1 -1 -1 -1 -1 -1 -1 -1 -0 -1 -2 -2 -4 -5 -6 -9 -12 -13 -14 -14 -13 -11 -13 -12 -16 -24 -15 -20 -16
4 3 3 3 3 3 2 2 2 1 1 0 -0 -1 -1 -1 -1 -2 -2 -2 -2 -1 -1 -2 -3 -5 -6 -6 -7 -10 -12 -14 -15 -13 -13 -13 -14 -14 -17 -25 -18 -20 -14

GFSMA_850_dewp_213.txt.gz
Dewpoint
12 10 5 5 2 -6 -12 -14 -15 -12 -7 -5 -4 -5 -5 -3 -2 -2 -6 -12 -10 -5 5 6 5 4 1 3 3 3 2 -5 -8 -19 -17 -19 -19 -15 -15 -19 -22 -23 -20
12 12 7 6 3 -4 -10 -14 -15 -15 -9 -5 -4 -4 -3 -1 -0 -1 -0 -5 -8 -1 6 6 6 6 5 5 5 4 4 1 -2 -12 -20 -24 -24 -22 -18 -8 -13 -15 -20
13 13 11 6 6 0 -10 -14 -15 -13 -9 -5 -3 -2 -0 -0 2 1 -1 3 -2 2 5 6 -1 -0 2 3 3 4 2 -0 -3 -5 -13 -20 -22 -23 -24 -21 -21 -19 -19
13 13 12 7 7 2 -8 -14 -16 -14 -7 -4 -1 2 3 3 4 3 0 0 1 3 4 5 3 -2 -2 -1 1 3 2 -0 0 0 -9 -13 -13 -22 -24 -24 -24 -17 -8
13 14 13 10 7 4 -5 -12 -15 -16 -12 -4 0 2 3 4 5 4 2 -1 -1 -1 4 4 4 3 2 2 2 2 -1 -3 -2 -1 -7 -6 -12 -17 -23 -27 -19 -13 -8
13 13 13 12 8 6 -2 -10 -14 -14 -11 -6 2 4 5 6 6 5 4 1 -0 -2 -2 -1 3 3 4 3 3 1 1 -3 -0 -2 -8 -15 -17 -12 -5 -11 -11 -3 -4
13 13 13 13 10 8 4 -7 -14 -14 -7 -3 1 5 6 7 6 5 4 2 2 0 -3 -6 -4 -0 3 3 2 3 2 2 -1 -6 -19 -15 -20 -17 -10 -9 -10 -7 -11
13 12 13 13 11 9 5 -6 -12 -12 -7 -2 2 5 6 6 6 6 4 3 3 2 -2 -5 -8 -9 -4 2 3 3 2 2 0 -12 -13 -16 -13 -17 -10 -7 -13 -7 -4
14 13 13 13 12 10 9 2 -7 -12 -9 -2 1 2 5 5 5 5 5 4 3 -0 -3 -6 -9 -10 -8 -0 2 2 2 -2 -6 -9 -5 -8 -6 -10 -13 -15 -16 -9 -6
12 13 13 13 12 10 10 9 -1 -10 -12 -7 2 3 -0 0 4 3 4 2 -1 -3 -5 -8 -9 -10 -10 -5 -1 0 -1 -10 -18 -13 -5 -3 -4 -4 -5 -5 -8 -9 -7
12 13 13 13 12 11 11 10 7 -6 -11 -10 -7 1 3 1 -0 1 2 1 -1 -2 -4 -5 -7 -9 -10 -10 -6 -6 -3 -8 -16 -19 -10 -5 -13 -18 -13 -11 -15 -19 -16
12 12 12 13 12 11 12 11 11 8 -2 -10 -7 -3 -1 -1 -2 -2 -1 0 -0 -1 -2 -3 -4 -6 -8 -10 -9 -9 -5 -10 -13 -18 -15 -11 -12 -9 -15 -14 -16 -23 -20
12 12 12 12 12 12 12 12 11 11 7 -1 -7 -7 -5 -2 -2 -4 -4 -2 -0 -1 -1 -2 -2 -4 -6 -8 -9 -10 -11 -13 -15 -20 -20 -22 -23 -21 -17 -22 -21 -25 -26
12 12 12 12 12 12 12 12 12 11 10 6 -4 -7 -9 -5 -2 -3 -5 -5 -1 -1 -1 -1 -2 -3 -5 -7 -8 -9 -12 -16 -19 -20 -23 -23 -24 -25 -26 -27 -28 -29 -30
12 11 12 11 12 12 12 12 12 12 11 9 5 -3 -6 -6 -5 -1 -2 -4 -6 -2 -1 -2 -2 -2 -3 -6 -7 -9 -11 -15 -19 -21 -23 -23 -23 -22 -25 -29 -30 -30 -31
12 12 11 11 11 11 11 11 11 11 11 10 5 2 -3 -4 -4 -2 0 -1 -4 -5 -4 -4 -2 -2 -3 -4 -6 -7 -10 -11 -15 -18 -11 -23 -20 -24 -26 -29 -30 -30 -32
12 12 12 11 11 11 11 11 10 11 9 9 8 4 1 -0 -3 -2 0 0 -2 -4 -5 -4 -4 -4 -3 -3 -3 -5 -9 -5 -14 -7 -20 -22 -24 -25 -27 -29 -30 -31 -33
12 12 12 12 11 11 11 11 11 10 9 6 5 5 5 4 0 -0 -0 1 -2 -3 -4 -5 -4 -3 -1 -2 -1 -2 -3 -4 -10 -15 -20 -21 -24 -25 -26 -29 -30 -31 -34
11 12 11 11 11 11 11 11 11 9 9 9 8 7 9 7 3 2 1 1 -0 -1 -3 -3 0 2 0 -1 -2 -2 -2 -2 -9 -13 -7 -16 -20 -25 -27 -29 -30 -30 -34
12 12 12 12 12 11 11 11 11 8 8 8 8 8 6 6 4 3 3 2 2 0 -1 1 3 1 0 -1 -1 -2 -3 -3 -8 -4 -8 -16 -20 -24 -27 -29 -29 -31 -35
12 12 12 11 11 11 10 9 9 7 7 7 8 7 6 5 5 6 4 3 3 1 1 3 2 0 -0 -1 -1 -2 -2 -4 -4 -4 -8 -15 -20 -24 -26 -27 -28 -30 -34
10 11 10 9 10 10 10 10 9 9 8 8 8 6 5 5 5 4 5 4 4 3 3 2 0 0 0 0 -1 -2 -3 -4 -6 -5 -11 -11 -17 -19 -23 -25 -26 -30 -35
9 9 8 8 9 8 8 8 8 7 7 7 6 6 5 5 5 5 4 4 3 3 3 3 2 1 0 0 0 -2 -2 -3 -3 -4 -9 -11 -15 -18 -21 -21 -22 -24 -26
7 7 7 7 7 7 7 8 7 6 5 5 5 5 5 4 4 3 3 3 3 2 2 2 2 2 1 1 0 1 -0 -2 -4 -4 -6 -8 -14 -17 -19 -18 -17 -19 -21
6 5 6 6 5 5 5 4 5 4 4 4 4 4 4 3 3 3 3 2 2 1 1 1 1 1 0 0 -0 -1 -3 -3 -5 -5 -6 -11 -12 -16 -17 -16 -15 -16 -18
4 4 5 4 5 4 4 3 3 4 3 3 3 3 3 3 2 1 1 2 1 1 0 -0 -0 -0 -1 -1 -1 -1 -1 -2 -3 -6 -6 -11 -13 -14 -14 -16 -14 -13 -14

GFSMA_850_dewp_216.txt.gz
Dewpoint
12 11 7 3 -2 2 2 5 7 8 7 3 4 2 6 7 7 7 6 -8 -6 0 1 -2 -8 -10 -10 -12 -9 -9 -6 -2 -1 -3 -9 -9 -9 -14 -20 -22 -21 -21 -20
12 11 7 4 1 3 7 7 8 8 7 7 7 5 7 7 7 7 6 1 2 5 5 2 -1 -3 -5 -12 -16 -15 -17 -16 -14 -15 -15 -17 -11 -18 -16 -22 -22 -23 -23
11 11 8 6 4 1 4 6 6 7 7 7 8 7 7 7 7 7 7 6 4 6 7 6 6 4 -1 -12 -17 -17 -13 -13 -17 -21 -21 -19 -16 -14 -14 -13 -15 -20 -21
12 12 11 8 5 0 -1 5 6 7 7 7 7 7 7 7 7 7 6 6 6 6 6 6 4 3 -1 -9 -14 -16 -17 -13 -17 -21 -22 -22 -23 -18 -7 -11 -11 -13 -17
13 12 12 10 7 1 0 5 6 6 6 6 7 7 7 7 7 7 7 6 6 5 6 5 5 2 2 -0 2 0 -9 -13 -16 -21 -20 -24 -24 -19 -16 -13 -12 -17 -22
13 13 12 12 9 4 1 3 5 6 6 6 6 7 7 7 7 7 6 6 6 5 6 5 4 4 4 4 4 4 1 1 -3 -13 -20 -24 -26 -23 -20 -22 -22 -17 -5
13 13 13 13 13 8 3 -1 2 6 6 6 6 7 7 7 7 7 6 6 6 5 5 5 4 4 4 3 3 4 4 3 2 -6 -19 -24 -26 -27 -28 -29 -25 -21 -15
13 13 13 13 13 10 6 1 -0 5 6 6 6 4 6 6 6 6 7 6 6 5 5 5 4 4 4 4 3 3 4 3 2 -6 -17 -22 -26 -28 -28 -30 -29 -27 -20
13 13 13 13 13 12 11 6 -0 -2 4 6 4 2 4 5 6 5 5 5 5 5 5 4 4 3 3 4 3 3 3 3 -2 -3 -9 -14 -20 -23 -27 -29 -28 -25 -25
13 13 13 12 13 13 12 10 4 -2 -1 -0 4 2 2 3 5 5 5 5 5 5 5 4 3 3 3 3 4 3 2 0 -6 -3 -7 -8 -9 -13 -22 -25 -27 -27 -27
13 13 13 13 13 12 12 12 8 2 -2 -4 -4 -0 4 5 4 4 4 4 4 4 4 4 3 2 2 2 3 3 1 -2 -7 -13 -4 -4 -5 -14 -18 -16 -18 -26 -27
13 12 12 12 13 12 12 12 12 9 3 -2 -3 2 4 2 3 3 3 4 4 4 3 3 2 2 2 2 2 -0 -1 -2 -6 -13 -15 -8 -3 -4 -13 -17 -24 -24 -25
12 12 12 12 12 12 13 12 12 12 8 4 -0 -0 3 3 2 2 2 4 3 3 2 2 1 2 1 1 1 -2 -5 -4 -5 -14 -17 -20 -18 -9 -10 -16 -24 -27 -26
12 12 12 12 11 12 12 12 12 12 10 7 3 1 3 3 1 2 1 1 2 1 1 1 1 1 1 1 1 -6 -9 -8 -8 -14 -20 -22 -22 -21 -22 -23 -26 -26 -25
13 13 12 12 12 12 11 11 12 12 12 10 6 4 3 3 1 1 1 -1 -3 0 0 0 1 0 -0 -0 -1 -7 -7 -9 -11 -14 -19 -22 -23 -23 -23 -25 -25 -26 -27
12 12 12 12 12 12 12 12 11 11 10 10 9 6 5 3 2 2 0 -1 -2 -4 -2 -1 -2 -1 -0 -1 -2 -6 -6 -10 -12 -14 -18 -21 -22 -21 -22 -21 -27 -29 -29
12 12 12 12 12 11 11 11 12 11 11 11 10 8 6 4 3 2 2 1 -0 -3 -4 -3 -3 -2 -1 -1 -2 -4 -7 -9 -11 -14 -15 -19 -21 -19 -21 -24 -27 -29 -29
12 12 12 12 12 12 11 11 11 11 11 11 11 8 6 5 4 3 3 2 2 1 -1 -3 -2 -2 -1 -1 -3 -5 -7 -4 -7 -12 -11 -17 -16 -21 -21 -25 -27 -29 -30
13 12 12 12 12 12 12 11 11 11 11 11 11 10 8 6 5 5 5 5 4 3 3 1 -1 -2 -2 -2 -2 -4 -1 0 -7 -8 -3 -13 -16 -22 -24 -25 -27 -29 -30
12 12 12 12 12 12 12 12 12 11 11 11 11 10 9 8 8 7 6 7 4 3 2 3 -0 -2 -2 -1 -1 -0 -1 -1 -4 -3 -7 -12 -19 -21 -23 -25 -27 -29 -30
12 12 12 12 12 12 12 11 11 10 11 10 9 9 8 8 7 7 7 5 4 3 3 -0 1 1 -0 -1 0 -1 -1 -2 -4 -4 -4 -10 -12 -12 -18 -24 -26 -29 -30
10 10 12 12 12 11 11 11 11 10 10 9 8 6 6 5 5 5 7 6 7 4 2 2 1 -0 1 1 1 -0 -2 -3 -4 -5 -4 -6 -6 -6 -10 -21 -26 -28 -30
8 10 10 10 10 10 10 10 9 7 7 7 8 8 7 5 5 5 4 4 4 5 5 4 2 1 2 2 2 -0 -1 -1 -2 -4 -5 -5 -6 -7 -8 -9 -15 -27 -31
7 8 9 9 9 9 9 9 8 7 6 6 6 6 5 5 4 5 4 3 3 4 3 3 3 3 2 3 2 2 1 -1 -4 -4 -4 -6 -6 -7 -7 -8 -16 -23 -26
6 7 7 7 7 7 7 7 7 6 5 5 5 5 5 4 4 4 3 3 2 2 2 3 3 3 2 1 1 0 -2 -4 -5 -5 -5 -5 -6 -7 -7 -9 -14 -19 -22
5 6 6 6 5 6 5 5 5 5 5 4 3 3 3 3 3 3 2 2 2 1 1 1 1 1 1 1 0 0 -0 -2 -4 -6 -5 -6 -6 -7 -8 -9 -12 -15 -17